Terminal Aerodrome Forecast
Issued by NWS

Home | Current Version | Previous Version | Text Only | Print | Product List | Glossary On
Versions: 1 2 3 4 5 6 7 8 9 10 11 12 13 14 15 16 17 18 19 20 21 22 23 24
000
FTUS44 KOUN 301720
TAFLAW
TAF
KLAW 301720Z 3018/3118 10011KT P6SM OVC100
     FM310800 13011KT P6SM VCSH OVC050
     FM311100 14012KT 5SM -RA OVC025
     FM311500 13012KT 3SM -RA BR OVC008=

USA.gov is the U.S. government's official web portal to all federal, state and local government web resources and services.